Home > Weather > Nouadhibou > Past weeks

Flag for Mauritania Weather for the Past 2 Weeks in Nouadhibou, Mauritania

Now
73 °F

Clear.


Feels Like: 76 °F
Forecast: N/A
Wind: 10 mph from Northwest

Location: Nouadhibou Airport

Current Time: Feb 7, 2016 at 11:07:48 PM

Latest Report: Feb 7, 2016 at 10:00 PM


Visibility: 4 mi

Pressure: 30.12 "Hg

Humidity: 61%

Dew point: 59 °F

Location of NouadhibouLocation

Historic Weather in Nouadhibou — Graph

°F

Nouadhibou Temperature Yesterday

Maximum temperature yesterday: 86 °F (at 2:00 PM)
Minimum temperature yesterday: 63 °F (at 6:00 AM)
Average temperature yesterday: 73 °F

High & Low Weather Summary for the Past Weeks

 TemperatureHumidityPressure
High88 °F (Feb 7, 3:00 PM)88% (Jan 25, 8:00 PM)30.24 "Hg (Jan 25, 8:00 PM)
Low63 °F (Jan 29, 8:00 AM)12% (Feb 4, 4:00 PM)29.98 "Hg (Feb 5, 4:00 PM)
Average73 °F46%30.11 "Hg
* Reported Jan 23 10:00 PM — Feb 7 10:00 PM, Nouadhibou, Weather by CustomWeather, © 2016

Note: Actual official high and low records may vary slightly from our data, if they occured in-between our weather recording intervals... More about our weather records

Advertising

Nouadhibou Weather History for the Previous 24 Hours

 ConditionsComfort  
Time TempWeatherWind HumidityBarometerVisibility
10:00 PM
Sun, Feb 7
73 °FClear.10 mph61%30.12 "Hg4 mi
9:00 PM73 °FClear.15 mph57%30.12 "Hg4 mi
8:00 PM73 °FLow level haze.15 mph57%30.09 "Hg2 mi
7:00 PM75 °FLow level haze.14 mph50%30.07 "Hg2 mi
6:00 PM81 °FLow level haze.7 mph37%30.04 "Hg2 mi
5:00 PM88 °FLow level haze.3 mph17%30.04 "Hg2 mi
4:00 PM86 °FLow level haze.8 mph22%30.04 "Hg2 mi
3:00 PM88 °FLow level haze.9 mph19%30.04 "Hg2 mi
2:00 PM82 °FLow level haze.13 mph30%30.07 "Hg2 mi
1:00 PM82 °FClear.16 mph32%30.09 "Hg5 mi
12:00 PM79 °FClear.14 mph34%30.12 "Hg5 mi
11:00 AM77 °FClear.14 mph30%30.12 "Hg5 mi
10:00 AM72 °FClear.16 mph36%30.12 "Hg5 mi
9:00 AM70 °FClear.16 mph35%30.09 "Hg5 mi
8:00 AM68 °FClear.12 mph60%30.09 "Hg5 mi
7:00 AM68 °FClear.12 mph60%30.09 "Hg5 mi
6:00 AM66 °FClear.9 mph64%30.09 "Hg5 mi
5:00 AM68 °FClear.12 mph64%30.07 "Hg5 mi
4:00 AM68 °FClear.12 mph64%30.07 "Hg5 mi
3:00 AM70 °FClear.12 mph64%30.09 "Hg5 mi
2:00 AM70 °FClear.12 mph64%30.09 "Hg5 mi
1:00 AM72 °FClear.14 mph61%30.09 "Hg5 mi
12:00 AM72 °FClear.15 mph61%30.09 "Hg5 mi
11:00 PM
Sat, Feb 6
75 °FClear.15 mph54%30.12 "Hg5 mi
Weather by CustomWeather, © 2016

See weather overviewHow to use our weather pages